KF5PJP Weather Reports


Display with metric or nautical units.
time (UTC)temp
F
wind
direction
speed
MPH
gust
MPH
rain 1hr
in
rain 24hr
in
rain mn
in
humidity
%
barometer
mb
20260831224003 100 244 2.0 3.0 0.00 0.00 0.00 35 1013.2
20260831222950 101 278 0.0 3.0 0.00 0.00 0.00 35 1013.2
20260831221955 100 271 1.0 4.0 0.00 0.00 0.00 35 1013.3
20260831221053 100 281 1.0 4.0 0.00 0.00 0.00 35 1013.3
20260831220436 101 302 1.0 5.0 0.00 0.00 0.00 34 1013.4
20260831220014 101 245 0.0 4.0 0.00 0.00 0.00 34 1013.3
20260831215454 101 275 1.0 3.0 0.00 0.00 0.00 34 1013.3
20260831214451 101 292 1.0 4.0 0.00 0.00 0.00 34 1013.5
20260831213438 102 266 1.0 4.0 0.00 0.00 0.00 34 1013.4
20260831212443 102 283 0.0 2.0 0.00 0.00 0.00 33 1013.6
20260831212011 102 291 0.0 3.0 0.00 0.00 0.00 34 1013.5
20260831211429 102 284 1.0 3.0 0.00 0.00 0.00 33 1013.6
20260831211012 102 281 0.0 4.0 0.00 0.00 0.00 34 1013.7
20260831210434 102 272 2.0 4.0 0.00 0.00 0.00 33 1013.7
20260831210001 103 240 1.0 3.0 0.00 0.00 0.00 30 1013.8
20260831205430 102 294 1.0 4.0 0.00 0.00 0.00 32 1014.0
20260831205017 102 272 2.0 4.0 0.00 0.00 0.00 31 1014.0
20260831204435 103 265 1.0 3.0 0.00 0.00 0.00 34 1014.2
20260831203446 102 279 2.0 4.0 0.00 0.00 0.00 35 1014.4
20260831203029 102 258 1.0 4.0 0.00 0.00 0.00 35 1014.5
20260831201449 101 282 2.0 3.0 0.00 0.00 0.00 34 1014.7
20260831200441 101 243 1.0 3.0 0.00 0.00 0.00 38 1014.9
20260831195459 100 242 2.0 4.0 0.00 0.00 0.00 37 1014.9
20260831195013 101 306 2.0 4.0 0.00 0.00 0.00 36 1014.9
20260831193955 100 271 1.0 5.0 0.00 0.00 0.00 37 1015.0
20260831193423 100 283 1.0 4.0 0.00 0.00 0.00 37 1015.1
20260831193009 100 254 2.0 4.0 0.00 0.00 0.00 38 1015.2
20260831192434 100 277 1.0 4.0 0.00 0.00 0.00 38 1015.2
20260831191435 100 275 1.0 4.0 0.00 0.00 0.00 38 1015.3
20260831190457 99 281 1.0 6.0 0.00 0.00 0.00 40 1015.6
20260831185938 99 277 2.0 6.0 0.00 0.00 0.00 39 1015.6
20260831184943 100 161 1.0 3.0 0.00 0.00 0.00 39 1015.8
20260831184003 99 253 1.0 3.0 0.00 0.00 0.00 40 1015.8
20260831183437 99 265 1.0 2.0 0.00 0.00 0.00 41 1015.8
20260831182447 98 271 1.0 4.0 0.00 0.00 0.00 42 1015.9
20260831181441 98 231 1.0 3.0 0.00 0.00 0.00 42 1016.1
20260831180454 97 283 1.0 3.0 0.00 0.00 0.00 42 1016.2
20260831175451 97 284 1.0 3.0 0.00 0.00 0.00 43 1016.2
20260831174927 96 248 1.0 3.0 0.00 0.00 0.00 45 1016.4
20260831173940 96 271 0.0 4.0 0.00 0.00 0.00 45 1016.5
20260831172956 97 205 1.0 5.0 0.00 0.00 0.00 44 1016.7
20260831171955 97 296 2.0 3.0 0.00 0.00 0.00 44 1016.8
20260831171515 98 276 0.0 2.0 0.00 0.00 0.00 43 1017.0
20260831170954 98 242 1.0 2.0 0.00 0.00 0.00 43 1017.0
20260831165951 98 164 0.0 3.0 0.00 0.00 0.00 43 1017.2
20260831164444 96 288 0.0 3.0 0.00 0.00 0.00 46 1017.4
20260831163950 95 289 1.0 3.0 0.00 0.00 0.00 46 1017.3
20260831162941 94 265 1.0 3.0 0.00 0.00 0.00 47 1017.3
20260831161942 95 31 0.0 3.0 0.00 0.00 0.00 47 1017.4
20260831161517 95 123 0.0 2.0 0.00 0.00 0.00 47 1017.5
20260831160933 95 39 0.0 3.0 0.00 0.00 0.00 49 1017.4
20260831160432 95 105 0.0 1.0 0.00 0.00 0.00 50 1017.4
20260831160006 93 83 0.0 2.0 0.00 0.00 0.00 52 1017.4
20260831155423 92 84 0.0 3.0 0.00 0.00 0.00 51 1017.4
20260831154954 93 256 1.0 3.0 0.00 0.00 0.00 52 1017.4
20260831153940 91 279 0.0 2.0 0.00 0.00 0.00 55 1017.4
20260831153518 91 284 0.0 1.0 0.00 0.00 0.00 57 1017.3
20260831153030 90 288 0.0 1.0 0.00 0.00 0.00 59 1017.3
20260831152010 88 126 1.0 2.0 0.00 0.00 0.00 61 1017.3
20260831151437 87 227 0.0 0.0 0.00 0.00 0.00 64 1017.2
20260831150432 86 311 0.0 2.0 0.00 0.00 0.00 67 1017.1
20260831150009 85 81 1.0 1.0 0.00 0.00 0.00 67 1017.1
20260831145425 85 270 0.0 0.0 0.00 0.00 0.00 69 1017.1
20260831144446 84 287 0.0 1.0 0.00 0.00 0.00 72 1017.2
20260831143502 83 133 0.0 0.0 0.00 0.00 0.00 73 1017.2
20260831142452 82 134 0.0 1.0 0.00 0.00 0.00 74 1017.1
20260831141441 82 99 0.0 2.0 0.00 0.00 0.00 75 1017.0
20260831140954 82 99 0.0 2.0 0.00 0.00 0.00 75 1017.0
20260831140500 81 266 0.0 1.0 0.00 0.00 0.00 75 1017.0
20260831135453 81 280 0.0 1.0 0.00 0.00 0.00 75 1016.9
20260831134447 81 45 0.0 0.0 0.00 0.00 0.00 76 1017.0
20260831133445 80 51 0.0 1.0 0.00 0.00 0.00 77 1016.8
20260831133017 80 52 0.0 0.0 0.00 0.00 0.00 77 1016.8
20260831132438 79 52 0.0 2.0 0.00 0.00 0.00 78 1016.8
20260831131454 78 255 0.0 0.0 0.00 0.00 0.00 79 1016.6
20260831131034 78 255 0.0 0.0 0.00 0.00 0.00 79 1016.4
20260831130437 77 255 0.0 0.0 0.00 0.00 0.00 79 1016.3
20260831125445 77 255 0.0 0.0 0.00 0.00 0.00 80 1016.3
20260831124449 77 255 0.0 0.0 0.00 0.00 0.00 80 1016.1
20260831123441 76 255 0.0 0.0 0.00 0.00 0.00 80 1015.9
20260831123016 76 255 0.0 0.0 0.00 0.00 0.00 80 1015.9
20260831122428 76 255 0.0 0.0 0.00 0.00 0.00 80 1015.8
20260831121504 76 255 0.0 0.0 0.00 0.00 0.00 80 1015.6
20260831120447 76 255 0.0 0.0 0.00 0.00 0.00 79 1015.6
20260831115500 76 255 0.0 0.0 0.00 0.00 0.00 78 1015.4
20260831114440 76 255 0.0 0.0 0.00 0.00 0.00 78 1015.3
20260831113443 76 255 0.0 0.0 0.00 0.00 0.00 78 1015.2
20260831112949 76 255 0.0 1.0 0.00 0.00 0.00 78 1015.2
20260831111932 76 255 0.0 1.0 0.00 0.00 0.00 78 1015.2
20260831110934 76 255 0.0 0.0 0.00 0.00 0.00 77 1015.3
20260831105949 76 255 0.0 0.0 0.00 0.00 0.00 76 1015.2
20260831104947 76 255 0.0 0.0 0.00 0.00 0.00 76 1015.2
20260831103433 77 255 0.0 0.0 0.00 0.00 0.00 75 1015.3
20260831102500 77 255 0.0 0.0 0.00 0.00 0.00 74 1015.2
20260831101449 78 255 0.0 0.0 0.00 0.00 0.00 73 1015.2
20260831100431 78 255 0.0 0.0 0.00 0.00 0.00 73 1015.2
20260831100002 78 255 0.0 0.0 0.00 0.00 0.00 73 1015.0
20260831094931 78 255 0.0 0.0 0.00 0.00 0.00 72 1015.0
20260831094439 78 255 0.0 0.0 0.00 0.00 0.00 71 1015.1
20260831094019 78 255 0.0 0.0 0.00 0.00 0.00 71 1015.1
20260831093423 79 255 0.0 0.0 0.00 0.00 0.00 71 1015.1
20260831093005 79 255 0.0 0.0 0.00 0.00 0.00 70 1014.9
20260831092443 79 255 0.0 0.0 0.00 0.00 0.00 70 1015.0
20260831092022 79 255 0.0 0.0 0.00 0.00 0.00 69 1015.0
20260831091540 79 255 0.0 0.0 0.00 0.00 0.00 69 1014.9
20260831090945 80 255 0.0 0.0 0.00 0.00 0.00 68 1014.9
20260831090517 80 255 0.0 0.0 0.00 0.00 0.00 68 1014.9
20260831085923 80 255 0.0 1.0 0.00 0.00 0.00 68 1014.9
20260831085514 80 255 0.0 1.0 0.00 0.00 0.00 68 1014.9
20260831084933 80 255 0.0 0.0 0.00 0.00 0.00 68 1014.9
20260831084418 80 255 0.0 0.0 0.00 0.00 0.00 68 1014.9
20260831084001 80 255 0.0 1.0 0.00 0.00 0.00 67 1014.8
20260831082941 80 255 0.0 0.0 0.00 0.00 0.00 66 1014.8
20260831081932 80 256 0.0 0.0 0.00 0.00 0.00 66 1014.8
20260831080929 81 256 0.0 0.0 0.00 0.00 0.00 65 1014.8
20260831075947 81 256 0.0 0.0 0.00 0.00 0.00 64 1014.8
20260831074954 81 256 0.0 1.0 0.00 0.00 0.00 64 1014.8
20260831074508 81 256 0.0 1.0 0.00 0.00 0.00 63 1014.8
20260831073921 82 255 0.0 0.0 0.00 0.00 0.00 63 1014.8
20260831073505 82 255 0.0 1.0 0.00 0.00 0.00 63 1014.8
20260831072941 82 255 0.0 1.0 0.00 0.00 0.00 63 1014.7
20260831071953 82 255 0.0 0.0 0.00 0.00 0.00 62 1014.7
20260831070954 82 254 0.0 1.0 0.00 0.00 0.00 62 1014.7
20260831070516 83 259 0.0 3.0 0.00 0.00 0.00 61 1014.8
20260831065945 83 259 0.0 3.0 0.00 0.00 0.00 61 1014.8
20260831065445 83 263 0.0 1.0 0.00 0.00 0.00 61 1014.8
20260831064927 83 263 0.0 1.0 0.00 0.00 0.00 61 1014.9
20260831064432 83 263 0.0 1.0 0.00 0.00 0.00 60 1014.8
20260831063925 83 247 0.0 1.0 0.00 0.00 0.00 60 1014.9
20260831063449 83 247 0.0 1.0 0.00 0.00 0.00 59 1014.9
20260831062946 84 247 0.0 1.0 0.00 0.00 0.00 59 1014.9
20260831062431 84 247 0.0 1.0 0.00 0.00 0.00 59 1015.0
20260831061935 84 256 0.0 1.0 0.00 0.00 0.00 58 1015.0
20260831061452 84 262 0.0 0.0 0.00 0.00 0.00 58 1014.9
20260831060934 84 262 0.0 0.0 0.00 0.00 0.00 57 1014.9
20260831060421 84 263 0.0 0.0 0.00 0.00 0.00 57 1014.9
20260831055949 84 263 0.0 1.0 0.00 0.00 0.00 56 1014.8
20260831055437 85 273 0.0 1.0 0.00 0.00 0.00 56 1014.6
20260831054921 85 273 0.0 1.0 0.00 0.00 0.00 56 1014.6
20260831054422 85 273 0.0 1.0 0.00 0.00 0.00 56 1014.6
20260831053925 85 273 0.0 1.0 0.00 0.00 0.00 55 1014.5
20260831053426 85 281 0.0 1.0 0.00 0.00 0.00 55 1014.6
20260831052947 85 109 0.0 0.0 0.00 0.00 0.00 56 1014.6
20260831052447 85 281 0.0 0.0 0.00 0.00 0.00 55 1014.6
20260831051930 85 281 0.0 0.0 0.00 0.00 0.00 55 1014.5
20260831051431 85 282 0.0 0.0 0.00 0.00 0.00 55 1014.4
20260831050930 86 282 0.0 0.0 0.00 0.00 0.00 54 1014.4
20260831050427 86 282 0.0 0.0 0.00 0.00 0.00 54 1014.3
20260831045938 86 282 0.0 0.0 0.00 0.00 0.00 54 1014.3
20260831045522 86 282 0.0 0.0 0.00 0.00 0.00 54 1014.3
20260831044455 86 284 0.0 0.0 0.00 0.00 0.00 54 1014.4
20260831043511 86 284 0.0 0.0 0.00 0.00 0.00 54 1014.3
20260831042921 87 284 0.0 0.0 0.00 0.00 0.00 54 1014.3
20260831042444 86 284 0.0 0.0 0.00 0.00 0.00 54 1014.2
20260831041442 86 284 0.0 1.0 0.00 0.00 0.00 54 1014.1
20260831041011 86 284 0.0 1.0 0.00 0.00 0.00 55 1014.1
20260831035952 85 75 0.0 1.0 0.00 0.00 0.00 56 1014.1
20260831034954 85 75 0.0 1.0 0.00 0.00 0.00 58 1013.9
20260831034432 85 75 0.0 0.0 0.00 0.00 0.00 57 1013.8
20260831033958 85 75 0.0 0.0 0.00 0.00 0.00 57 1013.8
20260831032942 86 75 0.0 0.0 0.00 0.00 0.00 56 1013.5
20260831031441 86 75 0.0 0.0 0.00 0.00 0.00 54 1013.5
20260831031012 86 75 0.0 0.0 0.00 0.00 0.00 54 1013.4
20260831030541 87 75 0.0 0.0 0.00 0.00 0.00 53 1013.3
20260831025942 87 75 0.0 0.0 0.00 0.00 0.00 53 1013.3
20260831024953 87 75 0.0 0.0 0.00 0.00 0.00 52 1013.3
20260831023944 87 75 0.0 0.0 0.00 0.00 0.00 51 1013.2
20260831022931 88 75 0.0 0.0 0.00 0.00 0.00 50 1013.1
20260831022456 88 75 0.0 0.0 0.00 0.00 0.00 49 1013.1
20260831021447 88 75 0.0 0.0 0.00 0.00 0.00 49 1012.9
20260831021020 88 75 0.0 0.0 0.00 0.00 0.00 48 1012.8
20260831020440 88 75 0.0 0.0 0.00 0.00 0.00 47 1012.7
20260831015423 89 75 0.0 0.0 0.00 0.00 0.00 48 1012.6
20260831015014 89 75 0.0 0.0 0.00 0.00 0.00 47 1012.6
20260831014436 90 75 0.0 0.0 0.00 0.00 0.00 47 1012.6
20260831014017 90 75 0.0 0.0 0.00 0.00 0.00 46 1012.5
20260831013428 90 75 0.0 0.0 0.00 0.00 0.00 45 1012.5
20260831012947 91 75 0.0 0.0 0.00 0.00 0.00 45 1012.4
20260831012528 91 75 0.0 0.0 0.00 0.00 0.00 44 1012.4
20260831010935 92 75 0.0 0.0 0.00 0.00 0.00 42 1012.3
20260831005939 93 75 0.0 0.0 0.00 0.00 0.00 41 1012.3
20260831005427 94 75 0.0 0.0 0.00 0.00 0.00 40 1012.3
20260831004959 94 75 0.0 0.0 0.00 0.00 0.00 39 1012.2
20260831003940 96 75 0.0 0.0 0.00 0.00 0.00 38 1012.3
20260831002935 97 75 0.0 0.0 0.00 0.00 0.00 37 1012.3
20260831001935 99 75 0.0 1.0 0.00 0.00 0.00 36 1012.3
20260831001509 99 75 0.0 1.0 0.00 0.00 0.00 35 1012.2
20260831000949 99 75 0.0 0.0 0.00 0.00 0.00 35 1012.3
20260830235941 99 75 0.0 1.0 0.00 0.00 0.00 35 1012.3
20260830234925 99 75 0.0 2.0 0.00 0.00 0.00 35 1012.3
20260830233928 99 79 0.0 4.0 0.00 0.00 0.00 36 1012.3
20260830233509 99 92 0.0 2.0 0.00 0.00 0.00 35 1012.4
20260830232435 99 277 0.0 0.0 0.00 0.00 0.00 35 1012.4
20260830232007 100 277 0.0 0.0 0.00 0.00 0.00 35 1012.4
20260830230952 100 278 0.0 1.0 0.00 0.00 0.00 35 1012.4
20260830225947 101 279 1.0 2.0 0.00 0.00 0.00 34 1012.3
20260830224940 102 91 1.0 4.0 0.00 0.00 0.00 33 1012.4